Chariton
Tuesday 7:55 PM
Temperature72° (79°/55°)
Dew Point61°
Relative Humidity69
%
Visibility10
mi
Pressure1004.1
mb
Wind DirectionSSW
210°
Wind Speed7
mph
Precipitation Today0.00"

Last 30 Observations

Time PresWx Temp DP Feels RH% Vsby Pressure Ceiling Direction Speed 1h Precip
7:55 PM 72° 61° 69
%
10
mi
1004.1
mb
SSW
210°
7
mph
0.00"
7:35 PM 73° 61° 65
%
10
mi
1004.1
mb
SSW
210°
8
mph
0.00"
7:15 PM 75° 61° 61
%
10
mi
1004.1
mb
SSW
210°
8
mph
0.00"
6:55 PM 77° 61° 57
%
10
mi
1004.1
mb
SW
220°
7
mph
(G14)
0.00"
6:35 PM 77° 61° 57
%
10
mi
1004.1
mb
SW
220°
11
mph
0.00"
6:15 PM 79° 61° 54
%
10
mi
1004.1
mb
SW
220°
11
mph
0.00"
5:55 PM 79° 61° 54
%
10
mi
1004.1
mb
SW
220°
10
mph
(G16)
0.00"
5:35 PM 79° 61° 54
%
10
mi
1004.1
mb
WSW
240°
11
mph
0.00"
5:15 PM 79° 61° 54
%
10
mi
1004.1
mb
SSW
210°
9
mph
(G17)
0.00"
4:55 PM 77° 63° 61
%
10
mi
1004.4
mb
WSW
240°
11
mph
(G18)
0.00"
4:35 PM 77° 63° 61
%
10
mi
1004.4
mb
WSW
240°
14
mph
0.00"
4:15 PM 77° 63° 61
%
10
mi
1004.1
mb
SW
220°
14
mph
0.00"
3:55 PM 75° 64° 69
%
10
mi
1004.1
mb
SSW
210°
16
mph
0.00"
3:35 PM 75° 66° 74
%
10
mi
1004.4
mb
SSW
210°
14
mph
0.00"
3:15 PM 75° 66° 74
%
10
mi
1004.8
mb
SW
220°
13
mph
0.00"
2:55 PM 73° 66° 78
%
10
mi
1005.1
mb
SSW
200°
15
mph
0.00"
2:35 PM 73° 66° 78
%
10
mi
1005.4
mb
SW
220°
14
mph
(G21)
0.00"
2:15 PM 72° 66° 83
%
10
mi
1005.8
mb
SW
220°
14
mph
0.00"
1:55 PM 72° 66° 83
%
10
mi
1006.1
mb
2,300
ft
SW
220°
11
mph
0.00"
1:35 PM 70° 66° 88
%
10
mi
1006.1
mb
2,100
ft
SW
220°
14
mph
0.00"
1:15 PM 70° 66° 88
%
10
mi
1006.1
mb
SW
230°
14
mph
0.00"
12:55 PM 68° 66° 94
%
10
mi
1006.1
mb
1,600
ft
SW
220°
13
mph
0.00"
12:35 PM 68° 66° 94
%
10
mi
1006.1
mb
1,500
ft
SSW
200°
14
mph
0.00"
12:15 PM 66° 66° 100
%
10
mi
1006.4
mb
1,300
ft
SSW
210°
13
mph
(G20)
0.00"
11:55 AM 66° 66° 100
%
10
mi
1006.8
mb
1,300
ft
SSW
200°
15
mph
0.00"
11:35 AM 64° 64° 100
%
10
mi
1007.1
mb
1,200
ft
0.00"
11:15 AM 63° 63° 100
%
9
mi
1007.5
mb
SW
220°
11
mph
0.00"
10:55 AM 63° 63° 100
%
8
mi
1007.5
mb
SW
230°
14
mph
0.00"
10:35 AM 63° 63° 100
%
8
mi
1007.5
mb
800
ft
SW
220°
11
mph
(G20)
0.00"
10:15 AM 63° 61° 94
%
7
mi
1007.8
mb
700
ft
SW
230°
11
mph
0.00"